Regional Weather Roundup
Issued by NWS

Home | Current Version | Previous Version | Graphics & Text | Print | Product List | Glossary On
Versions: 1 2 3 4 5 6 7 8 9 10 11 12 13 14 15 16 17 18 19 20 21 22 23 24 25 26 27 28 29 30 31 32 33 34 35 36 37 38 39 40 41 42 43 44 45 46 47 48 49 50
000
ASUS43 KFSD 022102
RWRSD

WEATHER ROUNDUP FOR SOUTH DAKOTA
NATIONAL WEATHER SERVICE SIOUX FALLS SD
400 PM CDT WED SEP 02 2015

NOTE: "FAIR" INDICATES FEW OR NO CLOUDS BELOW 12,000 FEET WITH NO
SIGNIFICANT WEATHER AND/OR OBSTRUCTIONS TO VISIBILITY.


SDZ001>005-009-010-012>017-022200-
NORTHWEST AND NORTH CENTRAL SOUTH DAKOTA

CITY           SKY/WX    TMP DP  RH WIND       PRES   REMARKS
BUFFALO          N/A     94  48  20 E9        29.71F
FAITH            N/A     95  51  22 S12       29.76F
MOBRIDGE       FAIR      92  72  51 SE10      29.72F HX  99
$$

SDZ012>016-024>037-041>051-057-063-072>074-022200-
SOUTHWEST AND SOUTH CENTRAL SOUTH DAKOTA

CITY           SKY/WX    TMP DP  RH WIND       PRES   REMARKS
RAPID CTY ARPT FAIR      97  50  20 NE5       29.78F
PIERRE         FAIR      95  58  28 SE13      29.72F
CUSTER         FAIR      87  37  17 SW14G24   30.00F
ELLSWORTH AFB  MOSUNNY   95  49  20 N5        29.78F
PHILIP         FAIR      98  55  23 S10G18    29.74F HX  96
PINE RIDGE     FAIR      97  45  16 SW7       29.85F
WINNER         FAIR     100  55  22 S15       29.76F HX  98
$$

SDZ004>011-016>023-039-040-022200-
NORTHEAST SOUTH DAKOTA

CITY           SKY/WX    TMP DP  RH WIND       PRES   REMARKS
ABERDEEN       FAIR      87  71  58 SE10      29.76F
WATERTOWN      FAIR      88  71  57 S15G22    29.81F
BROOKINGS      FAIR      84  72  65 S15       29.83F
$$

SDZ017-020-022-023-036>040-048>070-022200-
SOUTHEAST SOUTH DAKOTA

CITY           SKY/WX    TMP DP  RH WIND       PRES   REMARKS
SIOUX FALLS    PTSUNNY   84  73  69 S15       29.81F
HURON          FAIR      91  72  53 SE14G20   29.75F HX  98
CHAMBERLAIN    FAIR      92  71  49 SE7       29.75F HX  99
MITCHELL       FAIR      91  73  55 S14G21    29.77F HX  99
YANKTON        FAIR      90  73  58 SE14G23   29.78S HX  98
$$

ABBREVIATIONS USED IN REMARKS
   TC - TEMPERATURE IN CELSIUS
  WCI - WIND CHILL INDEX
   HX - HEAT INDEX
  VSB - VISIBILITY



USA.gov is the U.S. government's official web portal to all federal, state and local government web resources and services.